Home > Weather > Changsha > Past weeks

Flag for China Past Weather in Changsha, Hunan, China — Yesterday and Last 2 Weeks

Now
84 °F

Clear.


Feels Like: 92 °F
Forecast: 79 / 100 °F
Wind: 1 mph from North

Location: Changsha

Current Time: Jul 30, 2016 at 1:52:17 AM

Latest Report: Jul 30, 2016 at 1:00 AM


Visibility: 10 mi

Pressure: 29.71 "Hg

Humidity: 74%

Dew Point: 75 °F

Location of ChangshaLocation

Past Weather in Changsha — Graph

°F

Changsha Temperature Yesterday

Maximum temperature yesterday: 102 °F (at 3:00 PM)
Minimum temperature yesterday: 81 °F (at 4:00 AM)
Average temperature yesterday: 90 °F

High & Low Weather Summary for the Past Weeks

 TemperatureHumidityPressure
High102 °F (Jul 26, 1:00 PM)94% (Jul 15, 1:00 AM)29.77 "Hg (Jul 15, 1:00 AM)
Low77 °F (Jul 16, 4:00 AM)31% (Jul 29, 3:00 PM)29.50 "Hg (Jul 19, 5:00 PM)
Average87 °F68%29.66 "Hg
* Reported Jul 15 12:00 AM — Jul 30 12:00 AM, Changsha, Weather by CustomWeather, © 2016

Note: Actual official high and low records may vary slightly from our data, if they occured in-between our weather recording intervals... More about our weather records

Advertising

Changsha Weather History for the Previous 24 Hours

Scroll right to see more
 ConditionsComfort  
Time TempWeatherWind HumidityBarometerVisibility
12:00 AM
Sat, Jul 30
86 °FClear.3 mph70%29.71 "Hg10 mi
11:00 PM
Fri, Jul 29
86 °FClear.1 mph70%29.74 "Hg10 mi
10:00 PM88 °FClear.3 mph66%29.74 "Hg10 mi
9:00 PM90 °FClear.1 mph59%29.71 "Hg10 mi
8:00 PM93 °FPassing clouds.3 mph49%29.71 "HgN/A
7:00 PM95 °FPassing clouds.3 mph44%29.68 "HgN/A
6:00 PM99 °FPassing clouds.6 mph37%29.68 "HgN/A
5:00 PM100 °FSunny.6 mph35%29.68 "Hg10 mi
4:00 PM100 °FPassing clouds.6 mph33%29.68 "HgN/A
3:00 PM102 °FPassing clouds.3 mph31%29.71 "HgN/A
2:00 PM100 °FSunny.3 mph35%29.71 "Hg10 mi
1:00 PM99 °FPassing clouds.6 mph37%29.74 "HgN/A
12:00 PM97 °FPassing clouds.6 mph42%29.77 "HgN/A
11:00 AM95 °FPassing clouds.6 mph44%29.77 "HgN/A
10:00 AM93 °FPassing clouds.6 mph47%29.77 "HgN/A
9:00 AM91 °FPassing clouds.8 mph49%29.77 "HgN/A
8:00 AM86 °FSunny.6 mph62%29.74 "Hg10 mi
7:00 AM84 °FSunny.8 mph66%29.74 "Hg10 mi
6:00 AM81 °FSunny.3 mph79%29.74 "Hg10 mi
5:00 AM81 °FClear.3 mph79%29.71 "Hg10 mi
4:00 AM81 °FClear.3 mph79%29.71 "Hg10 mi
3:00 AM82 °FClear.3 mph74%29.71 "Hg10 mi
2:00 AM82 °FClear.3 mph74%29.71 "Hg10 mi
1:00 AM82 °FClear.3 mph74%29.71 "Hg10 mi
Weather by CustomWeather, © 2016

See weather overviewHow to use our weather pages